CAPE
0 0 0 0 0 0 0 0 0 0 0 0 0 0 0 0 0 0 114 286 139 231 1062 902 747 721 860 928 845 681 337 340 358 332 285 172 63 19 21 14 19 23 6 27 69 124 72 104 83
0 0 0 0 0 0 0 0 0 0 0 0 0 0 0 0 0 13 196 277 172 521 1178 871 792 832 1182 1187 733 362 213 186 149 130 87 36 12 9 13 6 2 5 14 103 132 131 93 80 66
0 0 0 0 0 0 0 0 0 0 0 0 0 0 0 0 1 142 340 284 238 850 1179 931 837 1285 1342 967 600 285 128 37 8 23 19 10 9 11 10 10 13 11 79 134 105 85 79 63 55
0 0 0 0 0 0 0 0 0 0 0 0 0 0 0 57 187 234 345 342 330 897 1061 956 931 1456 1209 884 305 141 27 6 6 15 12 11 14 11 13 15 15 13 90 98 90 68 65 59 34
0 0 0 0 0 0 0 0 0 0 0 0 0 0 0 189 71 251 369 428 456 886 937 986 1591 1398 1105 609 278 105 23 0 4 8 9 14 12 18 4 26 22 27 61 47 41 43 30 30 13
2 0 0 0 0 0 0 0 0 0 0 0 0 0 0 0 45 391 378 527 573 862 867 1143 1578 1297 963 595 274 104 6 0 5 9 11 35 28 26 10 22 30 49 56 40 22 30 20 8 0
1 0 0 0 0 0 0 0 0 0 0 0 0 0 0 2 334 489 491 566 598 806 892 1380 1418 1164 820 510 221 61 1 0 5 10 30 17 17 17 5 39 55 54 52 30 22 17 15 4 0
3 0 0 0 0 0 0 0 0 0 0 0 0 0 0 0 484 659 588 815 655 673 898 1241 1349 1082 768 399 121 0 0 0 8 19 16 7 9 16 12 38 49 50 34 23 18 26 26 14 7
2 0 0 0 0 0 0 0 0 0 0 0 0 0 0 46 616 670 656 637 869 558 1188 1211 1124 870 502 268 45 0 0 2 10 12 7 1 4 10 19 35 39 44 19 22 22 4 12 0 0
5 1 0 0 0 0 0 0 0 0 0 0 0 0 0 674 786 814 780 526 880 501 1053 1172 937 566 256 99 0 0 0 8 5 15 4 1 2 4 48 34 46 28 24 7 6 0 0 0 0
15 0 0 0 0 0 0 0 0 0 0 0 0 0 0 463 918 842 682 505 814 676 1129 1010 721 394 82 0 0 0 0 3 1 2 0 0 0 15 20 51 37 15 1 0 0 0 0 0 0
25 7 6 0 0 0 0 0 0 0 0 0 0 0 4 384 617 841 706 563 888 861 1081 916 525 207 1 0 0 0 0 0 1 0 0 0 2 5 3 7 0 0 0 0 0 0 0 0 0
16 6 14 5 7 12 6 1 0 0 0 0 0 0 0 291 695 588 745 781 739 842 1005 717 417 114 15 0 0 0 0 0 0 0 0 0 4 0 0 0 0 0 0 0 0 0 0 0 0
0 1 2 1 0 5 3 4 14 0 0 0 0 0 0 0 291 783 678 938 730 843 874 590 250 53 11 0 0 0 0 0 0 1 0 0 0 0 0 0 0 0 0 0 0 0 0 0 0
0 0 0 0 0 0 19 6 0 0 0 0 0 0 0 0 96 807 891 907 975 877 938 531 142 41 11 0 0 0 0 0 0 0 0 0 0 0 0 0 0 0 0 0 0 0 0 0 0
0 0 0 0 2 0 2 0 0 0 0 0 0 0 0 0 16 529 810 716 970 1011 768 413 129 33 2 0 0 0 0 0 0 0 0 0 0 0 0 0 0 0 0 0 0 0 0 0 0
0 0 0 0 0 0 3 1 0 0 3 0 0 0 0 0 0 318 738 453 850 831 624 354 95 25 3 0 0 0 0 0 0 0 0 0 0 0 0 0 0 0 0 0 0 0 0 0 0
0 0 0 0 0 0 0 0 0 0 0 0 0 0 0 0 0 250 818 774 795 681 529 319 89 14 0 0 0 0 0 0 0 0 0 0 0 0 0 0 0 0 0 0 0 0 0 0 0
0 0 0 0 0 0 0 0 0 0 0 0 0 0 0 0 0 401 825 871 935 621 457 280 63 11 0 0 1 0 0 0 0 0 0 0 0 0 0 0 0 0 0 0 0 0 0 0 0
0 0 0 0 0 0 0 0 0 0 0 0 0 0 0 0 0 149 529 572 704 607 414 162 40 2 1 0 0 0 0 0 0 0 0 0 0 0 0 0 0 0 0 0 0 0 0 0 0
0 0 0 0 0 0 0 0 0 0 0 0 0 0 0 0 0 0 282 463 727 590 347 77 31 2 1 1 2 0 0 0 0 0 0 0 0 0 0 0 0 0 0 0 0 0 0 0 0
0 0 0 4 0 0 0 0 0 0 0 0 0 0 0 0 0 0 0 267 769 529 358 106 23 14 1 1 1 0 1 0 0 0 0 0 0 0 0 0 0 0 0 0 0 0 0 0 0
0 0 0 0 0 0 0 0 0 0 0 0 0 0 0 0 0 0 0 115 520 731 434 142 48 9 1 1 1 0 1 0 0 0 0 0 0 0 0 0 0 0 0 0 0 0 0 0 0
0 0 0 0 0 0 0 0 0 0 0 0 0 0 0 0 0 0 0 61 296 699 572 254 80 2 2 1 0 0 0 0 0 0 0 0 0 0 0 0 0 0 0 0 0 0 0 0 0
0 0 0 0 0 0 0 0 0 0 0 0 0 0 0 0 0 0 0 24 128 635 597 341 130 10 1 1 1 0 0 0 0 0 0 0 0 0 0 0 0 0 0 0 0 0 0 0 0
0 0 0 0 0 0 0 0 0 0 0 0 0 0 0 0 0 0 0 0 17 135 537 376 184 36 1 1 1 0 0 0 0 0 0 0 0 0 0 0 0 0 0 0 0 0 0 0 0
0 0 0 0 0 0 0 0 1 0 0 0 0 0 0 4 3 0 0 0 0 4 23 151 143 58 1 1 1 0 0 0 0 0 0 0 0 0 0 0 0 0 0 0 0 0 0 0 0
0 0 0 0 0 0 0 0 0 0 0 0 0 0 0 0 7 0 0 0 0 37 96 105 157 79 5 0 0 0 0 0 0 0 0 0 0 0 0 0 0 0 0 0 0 0 0 0 0
0 0 0 0 0 0 0 0 0 0 0 2 0 0 0 0 0 0 0 0 0 42 146 222 193 67 7 1 0 0 0 0 0 0 0 0 0 0 0 0 0 0 0 0 0 0 0 0 0
0 0 0 0 0 0 0 0 0 0 0 2 6 0 0 0 0 0 0 0 0 38 139 153 125 26 0 1 0 0 0 0 0 0 0 0 0 0 0 0 0 0 0 0 0 0 0 0 0
CIN
0 0 0 0 0 0 0 0 0 0 0 0 0 0 0 0 0 0 -652 -498 -570 -466 -171 -157 -140 -93 -34 -6 -2 -6 -44 -29 -17 -18 -33 -74 -150 -189 -3 -4 -1 0 0 -60 -193 -138 -182 -150 -153
0 0 0 0 0 0 0 0 0 0 0 0 0 0 0 0 0 -234 -515 -503 -530 -317 -137 -148 -128 -74 -11 0 -12 -58 -105 -105 -117 -118 -160 -229 -2 0 -1 0 0 -1 -13 -172 -142 -156 -197 -187 0
0 0 0 0 0 0 0 0 0 0 0 0 0 0 0 0 -72 -412 -527 -511 -461 -220 -131 -121 -103 -22 -1 -14 -34 -113 -178 -260 -91 -206 -12 -4 0 -1 0 -1 -1 -1 -177 -156 -159 -201 -231 0 -1
0 0 0 0 0 0 0 0 0 0 0 0 0 0 0 -395 -319 -427 -514 -482 -396 -213 -146 -111 -80 -7 -9 -17 -133 -218 -310 -324 -1 -4 -3 -2 -1 0 0 -1 -1 -5 -182 -179 -212 -34 0 0 -1
0 0 0 0 0 0 0 0 0 0 0 0 0 0 0 -286 -503 -402 -411 -384 -346 -210 -158 -100 -9 -8 -10 -46 -152 -257 -352 0 -2 -1 0 0 -2 -4 -2 -4 -6 -5 -189 0 0 0 -1 -1 -15
-2 0 0 0 0 0 0 0 0 0 0 0 0 0 0 0 -483 -319 -314 -292 -264 -196 -154 -67 -9 -20 -18 -42 -147 -262 -437 0 -2 0 -1 -4 -3 -6 0 -4 -4 -2 0 0 0 0 -2 0 0
-1 0 0 0 0 0 0 0 0 0 0 0 0 0 0 -90 -263 -242 -245 -207 -205 -143 -96 -35 -18 -24 -34 -63 -180 -307 -148 0 0 -3 -1 -9 -6 -4 0 -1 -248 0 0 0 0 0 0 0 0
-2 0 0 0 0 0 0 0 0 0 0 0 0 0 0 0 -192 -159 -174 -110 -150 -111 -60 -26 -27 -28 -41 -88 -233 0 0 0 -1 -6 -12 -12 -4 -5 -2 -3 -1 -1 -1 -2 -1 0 -2 -16 -55
-9 0 0 0 0 0 0 0 0 0 0 0 0 0 0 -55 -108 -115 -102 -72 -59 -62 -12 -17 -34 -44 -78 -130 -299 0 0 -2 -7 -10 -23 -20 -3 -8 -7 -2 -1 0 -2 -2 0 -5 -25 -23 0
-6 0 0 0 0 0 0 0 0 0 0 0 0 0 0 -78 -94 -74 -87 -98 -49 -96 -31 -20 -46 -82 -132 -226 0 0 0 -4 -10 -9 -23 -6 -2 -12 -4 -8 -3 0 -7 -1 0 0 0 0 0
-1 0 0 0 0 0 0 0 0 0 0 0 0 0 0 -68 -37 -60 -110 -175 -141 -168 -47 -42 -74 -112 -195 0 0 0 -1 -9 -10 -15 -23 -2 0 -15 -25 -3 0 0 -2 0 0 0 0 0 0
0 -1 -1 0 0 0 0 0 0 0 0 0 0 0 -166 -52 -27 -43 -69 -99 -62 -68 -48 -71 -95 -157 -44 0 0 0 0 -7 -5 0 0 -6 -1 -23 -50 -29 0 0 0 0 0 0 0 0 0
-4 -4 -5 -2 -8 -5 -6 -2 0 0 0 0 0 0 0 -11 -8 -32 -63 -81 -91 -65 -36 -59 -108 -190 -260 0 0 0 0 0 0 -4 0 0 -2 0 0 -11 0 0 0 0 0 0 0 0 0
0 0 0 0 0 -4 -1 -4 -12 0 0 0 0 0 0 0 -10 -6 -23 -21 -45 -46 -35 -57 -117 -216 -312 0 0 0 0 0 0 -13 0 0 -2 -3 0 0 0 0 0 0 0 0 0 0 0
0 0 0 0 0 0 -4 -3 0 0 0 0 0 0 0 0 -12 -1 -1 -17 -42 -43 -44 -63 -157 -247 -300 0 0 0 0 0 0 0 0 0 0 -5 0 0 0 0 0 0 0 0 0 0 0
0 0 0 0 -1 -4 -12 0 0 -1 0 0 0 0 0 0 -3 -4 -4 -19 -14 -18 -29 -61 -155 -244 -55 0 0 0 0 0 0 0 0 0 0 0 0 0 0 0 0 0 0 0 0 0 0
0 0 -1 0 0 0 0 -2 0 0 -3 0 0 0 0 0 0 -23 -4 -23 -5 -14 -30 -51 -164 -232 -51 0 0 0 0 0 0 0 0 0 0 0 0 0 0 0 0 0 0 0 0 0 0
0 0 0 0 0 0 0 0 0 0 0 0 0 0 0 0 0 -22 0 -1 -1 -16 -34 -68 -154 -216 -54 0 0 0 0 0 0 0 0 0 0 0 0 0 0 0 0 0 0 0 0 0 0
0 0 0 0 0 0 0 0 0 0 0 0 0 0 0 0 0 -4 -1 0 0 -2 -20 -49 -126 -175 0 0 0 0 0 0 0 0 0 0 0 0 0 0 0 0 0 0 0 0 0 0 0
0 0 0 0 0 0 0 0 0 0 0 0 0 0 0 0 0 -8 -9 -9 -2 -5 -9 -65 -139 -94 0 0 0 0 0 0 0 0 0 0 0 0 0 0 0 0 0 0 0 0 0 0 0
0 0 0 0 0 0 0 0 0 0 0 0 0 0 0 0 0 0 -9 -7 -1 -1 -7 -73 -135 -52 0 0 0 0 0 0 0 0 0 0 0 0 0 0 0 0 0 0 0 0 0 0 0
0 0 0 -4 0 0 0 0 0 0 0 0 0 0 0 0 0 0 0 -2 0 -3 -4 -52 -112 -155 -38 0 0 0 0 0 0 0 0 0 0 0 0 0 0 0 0 0 0 0 0 0 0
0 0 0 0 0 0 0 0 0 0 0 0 0 0 0 0 0 0 0 -12 -2 0 -3 -41 -86 -97 0 0 0 0 0 0 0 0 0 0 0 0 0 0 0 0 0 0 0 0 0 0 0
0 0 0 0 -1 0 0 0 0 0 0 0 0 0 0 0 0 0 0 -11 -2 0 0 -12 -60 0 0 0 0 0 0 0 0 0 0 0 0 0 0 0 0 0 0 0 0 0 0 0 0
0 0 0 0 0 0 0 0 0 0 0 0 0 0 0 0 0 0 0 -29 -7 0 0 -11 -32 -57 0 0 0 0 0 0 0 0 0 0 0 0 0 0 0 0 0 0 0 0 0 0 0
0 0 0 0 0 0 0 0 0 0 0 0 0 0 0 0 0 0 0 0 -44 -17 -4 -6 -14 -40 0 0 0 0 0 0 0 0 0 0 0 0 0 0 0 0 0 0 0 0 0 0 0
0 0 0 0 0 0 0 0 -2 0 0 0 0 0 0 -110 -135 0 0 0 0 -20 -16 -18 -29 -25 -1 0 0 0 0 0 0 0 0 0 0 0 0 0 0 0 0 0 0 0 0 0 0
0 0 0 0 0 0 0 0 0 0 0 0 0 0 0 0 -146 0 0 0 0 -77 -61 -45 -39 -43 -33 0 0 0 0 0 0 0 0 0 0 0 0 0 0 0 0 0 0 0 0 0 0
0 0 0 0 0 0 0 0 0 0 0 0 0 0 0 0 0 0 0 0 0 -66 -42 -37 -24 -9 -22 0 0 0 0 0 0 0 0 0 0 0 0 0 0 0 0 0 0 0 0 0 0
0 0 0 0 0 0 0 0 0 0 0 0 -35 0 0 0 0 0 0 0 -1 -67 -26 -23 -26 -33 -32 0 0 0 0 0 0 0 0 0 0 0 0 0 0 0 0 0 0 0 0 0 0
Wind_Speed
16 17 16 15 21 23 25 22 22 18 22 20 17 18 14 22 16 19 18 4 2 15 15 17 16 16 16 15 13 12 11 9 8 6 6 5 4 7 11 9 12 16 20 24 23 26 28 27 27
16 16 16 18 21 23 26 25 17 11 20 18 20 21 22 24 25 25 14 12 5 14 14 16 17 18 18 15 13 12 10 8 6 4 5 4 6 10 11 9 12 15 18 21 22 24 26 26 26
14 15 16 18 22 29 26 25 20 28 27 26 23 22 24 24 19 18 16 4 10 14 13 14 17 17 17 16 14 11 8 7 5 3 5 5 7 9 12 12 12 14 18 20 21 21 23 24 23
15 17 22 23 26 23 25 24 25 28 28 28 29 31 24 21 18 17 11 6 14 15 14 14 15 15 17 16 13 11 9 7 6 6 5 5 7 9 12 13 12 14 18 19 19 19 21 21 22
16 20 27 27 28 26 26 27 27 26 24 25 26 34 29 21 20 14 7 9 16 15 14 15 13 14 16 15 13 11 9 7 7 5 5 4 5 5 11 12 13 15 19 18 18 19 20 20 21
22 23 30 31 30 29 29 28 30 32 30 25 24 30 34 28 19 13 9 11 15 15 14 14 14 14 14 13 12 10 8 8 5 4 4 7 7 7 10 11 12 15 17 17 16 17 19 19 20
26 29 34 35 33 33 32 26 29 32 35 32 26 31 28 27 23 15 12 13 15 16 15 14 14 14 12 12 11 10 8 7 6 5 5 7 6 6 11 12 15 16 17 17 17 18 18 18 18
26 33 42 39 36 37 33 27 28 29 35 32 26 34 32 25 18 16 14 16 16 18 18 15 15 14 12 10 10 9 8 6 6 6 7 7 7 6 9 10 15 16 18 18 18 17 17 17 17
25 39 45 43 39 38 29 31 29 28 32 27 23 28 26 20 15 18 18 20 19 21 20 18 15 14 12 11 9 8 8 6 5 7 8 6 5 6 5 8 13 17 18 18 17 16 15 15 14
32 44 49 40 36 42 38 37 32 29 30 31 28 27 25 17 18 22 23 23 22 23 21 19 17 15 13 12 11 8 7 6 5 5 5 5 6 6 5 9 12 16 17 16 16 16 12 12 11
38 53 44 42 34 39 43 41 35 37 38 34 32 26 25 21 21 22 26 26 26 24 22 20 19 16 15 13 12 11 9 7 6 6 6 6 8 7 5 8 9 10 11 11 12 12 10 11 10
49 50 51 54 45 43 41 39 44 41 36 27 28 26 24 24 25 25 27 28 28 27 25 22 20 19 17 15 15 14 12 10 8 7 8 8 9 8 7 7 6 7 5 8 9 11 12 11 11
49 54 54 52 45 49 51 51 48 55 41 41 37 31 27 28 28 29 28 29 29 29 27 24 22 20 18 17 17 15 14 12 10 9 9 10 10 10 8 7 7 5 5 8 10 11 11 11 11
50 54 52 49 53 54 53 51 46 59 47 47 42 38 34 31 32 32 32 30 31 30 29 26 24 21 20 19 18 18 16 14 12 11 10 10 11 11 9 8 7 5 5 6 9 10 11 11 11
49 61 59 57 54 53 49 63 62 54 43 43 46 45 41 37 32 36 34 32 32 32 29 28 25 23 22 21 20 20 19 16 14 12 12 11 10 11 10 9 7 6 5 7 8 9 10 11 10
52 53 67 58 48 43 49 72 61 53 59 59 49 44 42 41 38 36 36 36 33 32 31 28 26 25 23 21 21 22 20 18 16 14 13 13 11 11 10 9 8 7 6 7 8 9 9 10 10
42 55 55 56 50 58 52 57 57 63 53 53 55 55 50 43 42 39 36 37 35 34 32 30 28 28 25 22 23 23 21 19 18 16 15 14 13 12 11 10 9 8 7 6 7 6 8 9 9
47 51 51 55 48 54 62 66 58 51 43 55 56 50 52 51 48 40 38 37 35 36 34 31 30 29 26 23 23 24 23 21 19 17 17 15 14 13 12 11 10 9 8 7 6 7 5 7 8
42 46 50 53 56 55 63 67 65 54 55 52 44 45 47 50 48 40 36 36 35 37 38 35 32 30 27 27 26 25 26 23 21 19 16 16 15 13 13 13 12 11 10 8 7 7 7 3 8
45 45 50 51 51 49 57 66 65 58 56 56 55 49 43 45 49 44 40 39 39 38 40 37 34 32 30 28 29 28 25 24 22 20 19 17 15 13 13 14 13 12 10 9 8 8 4 1 1
40 39 42 46 47 45 55 66 66 67 56 53 56 55 48 44 47 51 43 42 39 38 38 38 35 34 32 29 27 26 23 22 23 22 21 20 17 15 13 14 14 13 12 11 10 8 5 5 5
35 31 36 38 42 44 37 59 54 59 66 58 55 57 57 50 46 47 48 45 41 41 38 37 35 35 33 30 29 27 26 24 26 23 22 21 20 18 16 15 14 13 12 11 10 9 7 6 4
30 38 39 41 44 44 47 49 54 53 60 64 58 54 55 53 47 45 47 46 42 39 39 36 34 36 33 31 30 28 27 27 22 22 21 22 21 20 18 17 16 15 14 12 11 9 8 7 7
5 11 27 34 33 39 45 42 52 59 58 56 55 54 51 51 49 46 44 43 43 37 37 36 35 36 34 33 31 29 27 26 24 22 22 23 22 21 20 19 17 16 15 14 12 11 10 8 8
7 15 29 24 22 28 29 29 47 43 53 57 51 54 52 51 48 47 43 45 42 41 39 36 35 36 34 33 32 32 30 27 25 24 23 23 23 23 22 20 19 18 16 15 14 13 12 10 10
7 4 17 23 21 27 25 21 22 33 43 45 54 45 50 51 44 47 44 44 44 42 41 38 37 36 35 34 34 33 30 29 27 25 24 23 24 23 20 20 20 20 19 17 16 15 14 12 12
9 11 4 12 18 21 18 20 19 25 24 40 37 40 42 46 44 46 44 45 44 43 41 41 39 37 36 36 34 33 31 29 29 26 26 23 22 21 20 19 19 18 18 17 17 16 15 14 13
9 5 12 10 17 19 20 15 18 24 26 32 39 40 44 43 41 40 42 42 40 42 41 39 39 39 37 36 36 34 31 29 28 26 25 23 21 19 17 18 18 17 17 17 17 17 16 14 14
12 11 3 7 9 19 18 13 23 26 23 27 35 38 40 38 38 39 40 42 41 40 39 39 38 38 37 38 36 34 32 29 27 27 26 23 22 20 20 17 19 16 15 15 16 15 15 14 13
15 15 10 16 6 5 12 12 17 22 19 15 18 22 27 31 30 34 37 37 39 39 38 37 36 36 36 37 35 34 32 30 29 28 26 24 23 21 22 19 18 17 16 15 14 14 14 13 12
Wind_Direction
310 310 308 305 293 289 281 281 289 289 287 285 289 281 267 269 276 280 294 323 203 151 145 140 137 135 132 127 121 114 108 96 95 96 90 80 63 61 68 53 55 68 74 86 76 84 87 79 80
306 306 302 299 283 266 277 281 273 238 287 295 283 281 279 276 270 278 296 294 150 154 150 142 139 137 134 130 126 119 110 100 98 99 92 83 77 76 72 60 65 71 75 78 77 77 76 73 73
311 301 290 289 277 240 279 287 281 285 280 280 285 283 279 277 279 280 284 265 160 160 156 150 142 139 136 131 126 121 112 104 101 106 98 94 86 74 76 75 74 73 82 79 77 71 69 66 67
306 294 292 274 240 281 281 288 294 287 282 277 276 279 282 281 283 277 275 192 167 165 162 161 150 143 139 134 129 122 113 104 103 109 104 100 93 83 80 83 77 82 86 81 76 74 69 66 65
301 295 282 278 255 275 282 283 285 287 287 284 272 267 274 281 279 278 249 189 172 171 173 165 165 152 144 138 133 124 116 106 111 112 113 103 96 78 87 82 81 83 85 82 75 73 70 67 66
286 289 282 267 254 282 280 280 282 280 278 282 281 276 270 271 272 266 239 196 183 183 177 174 170 162 152 145 136 129 122 115 113 122 126 109 102 96 91 87 87 88 83 82 76 72 72 72 69
281 280 272 274 272 282 281 284 275 276 274 269 276 276 277 267 262 251 228 202 199 196 190 188 175 169 163 156 145 136 128 123 116 128 126 114 111 109 103 93 94 93 88 83 79 76 74 73 69
280 283 278 273 272 268 281 283 282 273 275 276 268 268 269 269 252 237 225 213 210 202 198 198 186 178 176 175 160 145 138 133 126 128 128 121 117 115 111 94 97 93 91 85 81 75 73 71 67
281 275 271 267 276 275 291 278 279 282 272 273 267 267 271 264 240 228 220 215 214 208 204 203 194 188 188 187 180 165 148 143 140 134 129 132 144 141 131 102 98 97 92 86 81 74 72 66 60
265 270 269 282 279 280 278 275 276 275 271 269 267 268 268 246 228 222 215 212 212 203 204 201 197 192 188 194 189 184 177 175 190 171 166 166 164 191 141 118 104 98 94 85 78 76 70 64 54
271 265 270 276 288 282 275 274 272 267 265 265 265 264 258 244 232 222 218 212 208 198 208 204 202 196 194 196 204 212 210 200 194 191 193 167 169 197 166 129 114 103 91 78 71 71 63 60 52
271 271 273 273 278 281 278 276 267 263 262 271 266 264 255 244 233 224 219 217 215 211 212 206 205 201 204 203 208 215 214 209 198 198 193 189 181 200 178 160 146 118 94 84 75 76 71 61 52
275 275 275 275 278 274 273 269 269 262 262 262 263 263 259 249 239 233 225 219 215 214 216 211 206 205 207 205 211 211 214 212 205 192 196 203 197 202 190 170 158 137 105 93 86 83 74 65 58
284 282 279 277 275 272 270 269 266 259 261 258 257 256 256 252 243 235 228 220 216 215 215 213 210 208 205 210 208 214 215 215 211 202 200 197 208 207 197 183 171 154 124 102 93 88 79 69 63
283 279 278 273 274 270 272 264 257 258 261 257 253 252 252 250 245 236 229 223 215 215 215 213 213 209 208 208 209 215 216 215 213 209 203 201 202 202 204 194 182 170 145 113 98 86 79 72 58
286 280 274 271 273 273 262 259 257 259 254 252 252 251 249 246 244 239 232 227 222 217 215 215 214 210 206 209 210 215 215 214 215 211 212 205 205 196 198 196 194 172 153 130 113 100 85 73 65
288 280 279 274 271 265 262 262 260 254 256 251 249 247 246 246 242 239 231 227 223 218 216 214 213 211 209 209 213 213 213 215 215 213 217 206 208 205 202 200 191 176 164 148 127 106 94 83 67
294 288 282 277 270 269 261 258 257 261 259 251 248 245 242 241 240 237 232 227 222 220 217 214 217 215 212 211 214 215 216 218 216 215 217 205 207 205 206 205 188 184 172 162 147 122 96 88 79
302 293 286 280 272 269 261 258 254 257 253 250 250 242 241 239 237 236 230 226 221 219 220 216 214 216 211 212 210 213 214 216 218 219 215 208 208 208 205 202 195 196 184 175 156 136 122 93 93
302 296 289 284 274 272 263 257 253 251 251 248 246 244 245 240 234 234 230 227 224 221 219 217 215 215 214 213 217 217 214 220 220 221 218 215 210 206 207 200 200 197 192 182 169 157 174 220 132
308 302 294 285 276 277 264 257 251 247 250 250 243 242 242 242 236 231 229 225 221 219 218 217 215 215 215 214 215 217 218 218 223 222 221 220 214 210 208 201 203 200 197 190 188 184 195 187 273
318 320 301 289 282 275 271 255 251 246 243 244 241 239 238 240 239 232 228 226 223 220 221 216 215 216 216 215 215 210 217 213 226 221 224 221 219 218 215 208 202 201 209 201 200 204 213 190 224
291 294 287 280 278 275 267 260 251 246 242 238 240 237 236 236 235 233 228 225 224 220 219 215 216 218 217 216 217 216 221 226 220 224 223 221 223 221 218 213 209 210 214 213 206 212 218 222 249
306 279 273 275 287 273 266 261 250 243 238 237 237 235 234 233 233 233 230 226 223 220 216 218 216 217 219 219 219 220 222 224 223 223 222 222 224 224 223 220 219 219 221 217 221 223 224 225 252
23 297 321 318 306 283 296 269 251 247 238 236 237 234 233 233 233 230 229 224 221 219 217 217 217 218 218 221 223 225 225 225 222 219 219 221 223 225 224 221 224 226 227 228 229 227 232 235 248
342 10 291 307 300 287 291 276 276 256 242 241 236 237 234 233 232 228 228 226 223 220 218 218 219 219 220 222 225 226 227 229 228 223 223 224 225 226 222 225 228 232 234 236 235 236 240 244 252
31 340 285 250 262 288 303 305 287 300 266 242 241 239 233 229 229 226 226 226 225 222 220 220 222 222 223 224 225 226 228 230 229 226 227 227 226 227 221 222 224 229 231 233 235 241 243 248 256
26 1 309 272 300 307 310 310 305 309 271 252 237 235 230 229 227 226 224 223 223 222 223 224 225 225 223 223 226 227 229 231 230 228 223 225 226 224 216 216 224 225 229 232 233 240 244 247 258
22 350 21 166 178 321 306 311 331 318 287 257 240 231 228 225 226 226 225 225 225 225 226 226 226 226 225 224 226 227 230 231 230 228 226 223 224 224 222 217 225 223 223 226 230 235 237 241 251
36 28 14 95 226 251 222 261 332 328 312 283 227 219 222 225 232 228 227 224 223 224 224 224 224 226 225 223 225 228 230 231 231 231 228 227 224 225 224 227 225 226 227 225 224 225 231 232 242